FENGYUN 1C DEB, 33726

Orbit data source: Space-Track

FENGYUN 1C DEB, 33726 is space debris in SSO originally from a launch on Mon, 10 May 1999 UTC launched from the Taiyaun Space Center, China (TSC). Fengyun 1C debris stems from the Chinese weather satellite Fengyun-1C, which was intentionally destroyed by a Chinese anti-satellite missile in 2007. This event dramatically increased the amount of space debris, with thousands of trackable fragments posing hazards to satellites and human spaceflight. The Fengyun 1C debris cloud has become a focal point in discussions about space sustainability and the need for international regulations to prevent the creation of new debris.

Loading next visibility...
Identifier
33726, 1999-025DHP
Orbit
SSO
Country
Flag of CNCN / PRC
Related business
Manufacturer
Unknown
Mission
Spacecraft
Bus & Motor
Unknown
Mass
Unknown
Launch date (UTC)
1999-05-10 (27 years ago)
Launch vehicle
Unknown
Launch site
Taiyaun Space Center, China (TSC)
Object type
Payload
Rocket body
Debris
Shape & HBR
Unknown shape, 0.1 m
Radar Cross Section
Small (<0.1 m²)

Expand to show TLE details & history
Last TLE update: 2 days ago

TLE from 2 days ago
0 FENGYUN 1C DEB
1 33726U 99025DHP 26263.62202440  .00000377  00000-0  18418-3 0  9997
2 33726  98.6699  24.3569 0190396 304.2348  66.9325 14.14773926959177
Epoch: 2026-09-20T14:55Z
TLE epoch observation values (Epoch: 2026-09-20T14:55:42.908Z)
Latitude
13.00336°
Longitude
158.90732°
Altitude
793.6 km
Speed
7.484 km/s
True Right ascension
01h 29m 23s
True Declination
12° 55' 43"
Sunlit
Object was in full shadow at epoch
Visualization orbit readout
Latitude
Unknown
Longitude
Unknown
Altitude
Unknown
Speed
Unknown
Apparent Right ascension
Unknown
Apparent Declination
Unknown
Sunlit
N/A
Visualization observer readout
Local Sidereal Time
00:04:59
Azimuth
Unknown
Elevation
Unknown
Doppler factor
Unknown
Orbital elements
Apogee altitude
977.679 km
Perigee altitude
702.808 km
Semi-major axis
7,218.38 km
Eccentricity
0.01904
Inclination
98.6699°
RAAN
24.3569°
Arg. of periapsis
304.2348°
True anomaly
68.9583°
Mean anomaly
66.9325°
Eccentric anomaly
67.94355°
Mean motion
3.53902 °/min
Orbital period
101.72 mins
BSTAR
0.00018418
Loading maneuver chart data...
Computing Atmospheric mass density...

Documentation

Showing up to 5 results
|